Location: *
(40.4000°N, 15.1200°E)
Time: 09:24:32
(UTC+00:00)

DMSP B5D2-2 - Pass Details

Date: 09 April 2020
Orbit: 791 x 805 km, 98.3° (Epoch: 29 May)

Event Time Altitude Azimuth Distance (km) Brightness Sun altitude
Rises 19:00:14 0° 15° (NNE) 3,302 7.4 -16.6°
Reaches altitude 10° 19:02:35 10° 17° (NNE) 2,370 6.6 -17.0°
Maximum altitude 19:07:49 71° 102° (ESE) 840 4.0 -17.9°
Drops below altitude 10° 19:13:01 10° 187° (S) 2,362 6.3 -18.7°
Sets 19:15:21 0° 189° (S) 3,290 7.1 -19.1°
